| time (UTC) | temp F | wind direction | speed MPH | gust MPH | rain 1hr in | rain 24hr in | rain mn in | humidity % | barometer mb |
| 20260504191525 | 54 | 174 | 0.0 | 1.0 | 0.00 | 0.78 | 0.03 | 92 | 1019.9 |
| 20260504191025 | 55 | 174 | 0.0 | 1.0 | 0.00 | 0.78 | 0.03 | 92 | 1019.9 |
| 20260504190504 | 55 | 173 | 0.0 | 1.0 | 0.01 | 0.78 | 0.03 | 92 | 1019.9 |
| 20260504190004 | 55 | 174 | 0.0 | 1.0 | 0.01 | 0.79 | 0.03 | 92 | 1019.8 |
| 20260504185504 | 55 | 174 | 0.0 | 1.0 | 0.02 | 0.79 | 0.03 | 92 | 1019.8 |
| 20260504185004 | 55 | 0 | 0.0 | 0.0 | 0.02 | 0.79 | 0.03 | 92 | 1019.8 |
| 20260504184504 | 55 | 0 | 0.0 | 0.0 | 0.02 | 0.79 | 0.03 | 92 | 1019.7 |
| 20260504184004 | 56 | 174 | 0.0 | 1.0 | 0.02 | 0.80 | 0.03 | 92 | 1019.6 |
| 20260504183504 | 56 | 174 | 1.0 | 3.0 | 0.02 | 0.81 | 0.03 | 92 | 1019.6 |
| 20260504183004 | 56 | 175 | 1.0 | 5.0 | 0.02 | 0.81 | 0.03 | 92 | 1019.5 |
| 20260504182525 | 56 | 176 | 0.0 | 5.0 | 0.02 | 0.81 | 0.03 | 92 | 1019.5 |
| 20260504182003 | 56 | 0 | 0.0 | 0.0 | 0.02 | 0.81 | 0.03 | 92 | 1019.5 |
| 20260504181503 | 56 | 311 | 1.0 | 1.0 | 0.02 | 0.81 | 0.03 | 92 | 1019.5 |
| 20260504181004 | 56 | 288 | 1.0 | 5.0 | 0.02 | 0.81 | 0.03 | 92 | 1019.5 |
| 20260504180503 | 56 | 247 | 0.0 | 5.0 | 0.01 | 0.80 | 0.02 | 92 | 1019.5 |
| 20260504180004 | 56 | 137 | 0.0 | 3.0 | 0.01 | 0.80 | 0.02 | 92 | 1019.5 |
| 20260504175504 | 56 | 137 | 0.0 | 1.0 | 0.00 | 0.80 | 0.02 | 92 | 1019.5 |
| 20260504175004 | 56 | 137 | 0.0 | 1.0 | 0.00 | 0.80 | 0.02 | 92 | 1019.6 |
| 20260504174503 | 56 | 137 | 1.0 | 1.0 | 0.00 | 0.80 | 0.02 | 92 | 1019.6 |
| 20260504174004 | 56 | 138 | 1.0 | 3.0 | 0.00 | 0.80 | 0.02 | 92 | 1019.6 |
| 20260504173504 | 56 | 138 | 1.0 | 3.0 | 0.00 | 0.80 | 0.02 | 92 | 1019.5 |
| 20260504173004 | 56 | 138 | 0.0 | 3.0 | 0.00 | 0.81 | 0.02 | 92 | 1019.6 |
| 20260504172525 | 56 | 138 | 0.0 | 3.0 | 0.00 | 0.81 | 0.02 | 92 | 1019.7 |
| 20260504172004 | 56 | 138 | 0.0 | 3.0 | 0.01 | 0.81 | 0.02 | 92 | 1019.8 |
| 20260504171504 | 56 | 0 | 0.0 | 0.0 | 0.01 | 0.82 | 0.02 | 92 | 1019.7 |
| 20260504171004 | 56 | 0 | 0.0 | 0.0 | 0.01 | 0.82 | 0.02 | 92 | 1019.8 |
| 20260504170504 | 56 | 0 | 0.0 | 0.0 | 0.01 | 0.82 | 0.02 | 92 | 1019.8 |
| 20260504151004 | 54 | 88 | 4.0 | 6.0 | 0.01 | 0.83 | 0.01 | 91 | 1019.5 |
| 20260504150525 | 54 | 76 | 4.0 | 5.0 | 0.01 | 0.83 | 0.01 | 91 | 1019.5 |
| 20260504141004 | 56 | 84 | 1.0 | 3.0 | 0.00 | 0.83 | 0.83 | 90 | 1019.2 |
| 20260504140525 | 56 | 58 | 1.0 | 5.0 | 0.00 | 0.83 | 0.83 | 90 | 1019.3 |
| 20260504130504 | 57 | 0 | 0.0 | 0.0 | 0.01 | 0.83 | 0.83 | 88 | 1019.0 |
| 20260504082004 | 61 | 270 | 6.0 | 10.0 | 0.00 | 0.84 | 0.82 | 80 | 1015.8 |
| 20260504081504 | 61 | 284 | 5.0 | 10.0 | 0.00 | 0.84 | 0.82 | 80 | 1015.8 |
| 20260504081004 | 61 | 293 | 4.0 | 10.0 | 0.00 | 0.84 | 0.82 | 81 | 1015.7 |
| 20260504080504 | 61 | 298 | 5.0 | 10.0 | 0.00 | 0.84 | 0.82 | 81 | 1015.7 |
| 20260504050504 | 67 | 247 | 14.0 | 24.0 | 0.00 | 0.86 | 0.82 | 63 | 1014.1 |
| 20260504050004 | 66 | 255 | 13.0 | 23.0 | 0.00 | 0.86 | 0.82 | 65 | 1014.0 |
| 20260504045504 | 66 | 257 | 13.0 | 24.0 | 0.00 | 0.86 | 0.82 | 64 | 1014.0 |
| 20260504045004 | 67 | 252 | 12.0 | 24.0 | 0.00 | 0.86 | 0.82 | 64 | 1013.9 |
| 20260504044504 | 66 | 240 | 11.0 | 20.0 | 0.00 | 0.86 | 0.82 | 64 | 1013.8 |
| 20260504044004 | 66 | 227 | 12.0 | 20.0 | 0.00 | 0.86 | 0.82 | 66 | 1013.8 |
| 20260504043504 | 66 | 222 | 13.0 | 24.0 | 0.00 | 0.86 | 0.82 | 65 | 1013.8 |
| 20260504043004 | 66 | 224 | 14.0 | 24.0 | 0.00 | 0.86 | 0.82 | 66 | 1013.6 |
| 20260504042504 | 66 | 237 | 13.0 | 23.0 | 0.00 | 0.86 | 0.82 | 68 | 1013.7 |
| 20260504042004 | 65 | 243 | 11.0 | 25.0 | 0.00 | 0.86 | 0.82 | 67 | 1013.7 |
| 20260504041504 | 66 | 243 | 11.0 | 25.0 | 0.00 | 0.86 | 0.82 | 66 | 1013.6 |
| 20260504041004 | 66 | 249 | 12.0 | 23.0 | 0.00 | 0.86 | 0.82 | 67 | 1013.7 |
| 20260504040525 | 67 | 252 | 14.0 | 23.0 | 0.00 | 0.86 | 0.82 | 66 | 1013.6 |
| 20260504040004 | 67 | 256 | 15.0 | 24.0 | 0.00 | 0.86 | 0.82 | 67 | 1013.7 |
| 20260504035505 | 66 | 261 | 15.0 | 28.0 | 0.00 | 0.86 | 0.82 | 67 | 1013.7 |
| 20260504035004 | 66 | 259 | 14.0 | 28.0 | 0.00 | 0.86 | 0.82 | 68 | 1013.6 |
| 20260504034525 | 66 | 254 | 13.0 | 28.0 | 0.00 | 0.86 | 0.82 | 66 | 1013.7 |
| 20260504034004 | 66 | 255 | 13.0 | 24.0 | 0.00 | 0.86 | 0.82 | 67 | 1013.6 |
| 20260504033504 | 66 | 253 | 15.0 | 24.0 | 0.00 | 0.86 | 0.82 | 69 | 1013.8 |
| 20260504033004 | 66 | 248 | 15.0 | 24.0 | 0.00 | 0.86 | 0.82 | 69 | 1013.7 |
| 20260504032525 | 65 | 241 | 15.0 | 29.0 | 0.00 | 0.86 | 0.82 | 68 | 1013.7 |
| 20260504032004 | 66 | 239 | 15.0 | 29.0 | 0.00 | 0.86 | 0.82 | 68 | 1013.6 |
| 20260504031505 | 65 | 247 | 14.0 | 32.0 | 0.00 | 0.86 | 0.82 | 69 | 1013.7 |
| 20260504031004 | 66 | 250 | 13.0 | 32.0 | 0.00 | 0.86 | 0.82 | 69 | 1013.8 |
| 20260504030504 | 65 | 254 | 13.0 | 27.0 | 0.00 | 0.86 | 0.82 | 71 | 1013.7 |
| 20260504030004 | 66 | 259 | 13.0 | 25.0 | 0.05 | 0.86 | 0.82 | 71 | 1013.8 |
| 20260504025504 | 65 | 264 | 13.0 | 30.0 | 0.05 | 0.86 | 0.82 | 73 | 1013.9 |
| 20260504025003 | 65 | 264 | 12.0 | 30.0 | 0.05 | 0.86 | 0.82 | 75 | 1013.9 |
| 20260504024504 | 64 | 256 | 11.0 | 19.0 | 0.05 | 0.86 | 0.82 | 77 | 1013.9 |
| 20260504024004 | 64 | 251 | 11.0 | 19.0 | 0.05 | 0.86 | 0.82 | 80 | 1013.9 |
| 20260504023504 | 63 | 252 | 11.0 | 19.0 | 0.05 | 0.86 | 0.82 | 83 | 1013.9 |
| 20260504023004 | 62 | 262 | 11.0 | 25.0 | 0.05 | 0.86 | 0.82 | 83 | 1014.0 |
| 20260504022504 | 62 | 261 | 10.0 | 25.0 | 0.05 | 0.86 | 0.82 | 85 | 1014.1 |
| 20260504022025 | 62 | 255 | 11.0 | 19.0 | 0.05 | 0.86 | 0.82 | 87 | 1014.1 |
| 20260504021504 | 61 | 255 | 13.0 | 19.0 | 0.05 | 0.86 | 0.82 | 86 | 1014.1 |
| 20260504021025 | 60 | 261 | 14.0 | 32.0 | 0.05 | 0.86 | 0.82 | 84 | 1014.1 |
| 20260504020504 | 61 | 264 | 14.0 | 32.0 | 0.06 | 0.86 | 0.82 | 80 | 1014.2 |
| 20260504020004 | 64 | 264 | 14.0 | 24.0 | 0.02 | 0.81 | 0.77 | 78 | 1013.9 |
| 20260504015504 | 63 | 260 | 13.0 | 24.0 | 0.02 | 0.81 | 0.77 | 78 | 1013.9 |
| 20260504015004 | 63 | 257 | 13.0 | 23.0 | 0.02 | 0.81 | 0.77 | 78 | 1014.0 |
| 20260504014504 | 64 | 258 | 12.0 | 25.0 | 0.02 | 0.81 | 0.77 | 78 | 1013.9 |
| 20260504014004 | 64 | 249 | 11.0 | 25.0 | 0.02 | 0.81 | 0.77 | 79 | 1013.9 |
| 20260504013504 | 63 | 242 | 11.0 | 19.0 | 0.02 | 0.81 | 0.77 | 81 | 1013.9 |
| 20260504013004 | 62 | 251 | 12.0 | 25.0 | 0.02 | 0.81 | 0.77 | 84 | 1013.9 |
| 20260504012504 | 62 | 249 | 11.0 | 25.0 | 0.02 | 0.81 | 0.77 | 83 | 1013.9 |
| 20260504012004 | 62 | 252 | 11.0 | 24.0 | 0.02 | 0.81 | 0.77 | 85 | 1013.9 |
| 20260504011525 | 61 | 256 | 13.0 | 20.0 | 0.02 | 0.81 | 0.77 | 86 | 1013.9 |
| 20260504011004 | 61 | 256 | 13.0 | 34.0 | 0.02 | 0.81 | 0.77 | 85 | 1013.8 |
| 20260504010504 | 61 | 260 | 12.0 | 34.0 | 0.01 | 0.80 | 0.76 | 82 | 1013.8 |
| 20260504010004 | 63 | 262 | 12.0 | 20.0 | 0.00 | 0.80 | 0.76 | 83 | 1013.6 |
| 20260504005504 | 62 | 259 | 11.0 | 19.0 | 0.00 | 0.80 | 0.76 | 84 | 1013.6 |
| 20260504005004 | 62 | 252 | 12.0 | 18.0 | 0.00 | 0.80 | 0.76 | 86 | 1013.5 |
| 20260504004503 | 61 | 257 | 13.0 | 19.0 | 0.00 | 0.80 | 0.76 | 88 | 1013.6 |
| 20260504004004 | 61 | 265 | 13.0 | 27.0 | 0.00 | 0.80 | 0.76 | 89 | 1013.5 |
| 20260504003525 | 61 | 270 | 13.0 | 27.0 | 0.00 | 0.80 | 0.76 | 90 | 1013.5 |
| 20260504003025 | 61 | 275 | 13.0 | 23.0 | 0.00 | 0.80 | 0.76 | 92 | 1013.4 |
| 20260504002504 | 60 | 273 | 12.0 | 23.0 | 0.00 | 0.80 | 0.76 | 93 | 1013.3 |
| 20260504002004 | 60 | 275 | 10.0 | 23.0 | 0.00 | 0.80 | 0.76 | 93 | 1013.3 |
| 20260504001504 | 60 | 277 | 9.0 | 18.0 | 0.00 | 0.80 | 0.76 | 93 | 1013.3 |
| 20260504001004 | 60 | 273 | 10.0 | 17.0 | 0.00 | 0.80 | 0.76 | 94 | 1013.2 |
| 20260504000504 | 59 | 273 | 10.0 | 23.0 | 0.00 | 0.80 | 0.76 | 94 | 1013.3 |
| 20260504000003 | 59 | 275 | 10.0 | 23.0 | 0.00 | 0.80 | 0.76 | 94 | 1013.3 |
| 20260503235525 | 59 | 277 | 10.0 | 18.0 | 0.00 | 0.80 | 0.76 | 94 | 1013.2 |
| 20260503235003 | 59 | 275 | 8.0 | 20.0 | 0.00 | 0.80 | 0.76 | 94 | 1013.2 |
| 20260503234503 | 59 | 279 | 7.0 | 20.0 | 0.00 | 0.80 | 0.76 | 94 | 1013.1 |
| 20260503234004 | 59 | 286 | 7.0 | 13.0 | 0.03 | 0.80 | 0.76 | 94 | 1013.0 |
| 20260503233503 | 59 | 291 | 7.0 | 13.0 | 0.09 | 0.80 | 0.76 | 94 | 1012.9 |
| 20260503233004 | 59 | 291 | 7.0 | 11.0 | 0.17 | 0.80 | 0.76 | 94 | 1012.9 |
| 20260503232504 | 59 | 297 | 8.0 | 11.0 | 0.17 | 0.80 | 0.76 | 94 | 1012.8 |
| 20260503232003 | 58 | 302 | 8.0 | 11.0 | 0.17 | 0.80 | 0.76 | 94 | 1012.8 |
| 20260503231504 | 58 | 300 | 8.0 | 13.0 | 0.17 | 0.80 | 0.76 | 94 | 1012.7 |
| 20260503231003 | 58 | 293 | 8.0 | 13.0 | 0.18 | 0.80 | 0.76 | 94 | 1012.7 |
| 20260503230503 | 58 | 287 | 8.0 | 11.0 | 0.24 | 0.80 | 0.76 | 94 | 1012.6 |
| 20260503230004 | 58 | 283 | 8.0 | 14.0 | 0.24 | 0.80 | 0.76 | 94 | 1012.6 |
| 20260503225524 | 58 | 272 | 6.0 | 14.0 | 0.25 | 0.80 | 0.76 | 94 | 1012.4 |
| 20260503225003 | 58 | 252 | 5.0 | 15.0 | 0.30 | 0.80 | 0.76 | 94 | 1012.3 |
| 20260503224525 | 57 | 255 | 8.0 | 15.0 | 0.34 | 0.80 | 0.76 | 94 | 1012.2 |
| 20260503224024 | 57 | 302 | 12.0 | 18.0 | 0.31 | 0.77 | 0.72 | 94 | 1012.1 |
| 20260503223504 | 57 | 311 | 13.0 | 19.0 | 0.28 | 0.72 | 0.67 | 94 | 1012.1 |
| 20260503223004 | 57 | 309 | 14.0 | 19.0 | 0.19 | 0.63 | 0.58 | 94 | 1011.9 |
| 20260503222525 | 57 | 306 | 14.0 | 27.0 | 0.19 | 0.63 | 0.58 | 94 | 1011.9 |
| 20260503222024 | 57 | 310 | 13.0 | 28.0 | 0.19 | 0.63 | 0.58 | 94 | 1011.7 |
| 20260503221504 | 57 | 308 | 13.0 | 28.0 | 0.20 | 0.63 | 0.58 | 94 | 1011.5 |
| 20260503221003 | 57 | 306 | 12.0 | 30.0 | 0.21 | 0.62 | 0.57 | 94 | 1011.7 |
| 20260503220504 | 57 | 311 | 9.0 | 30.0 | 0.17 | 0.57 | 0.52 | 94 | 1011.4 |
| 20260503220003 | 57 | 314 | 8.0 | 18.0 | 0.17 | 0.56 | 0.51 | 93 | 1011.6 |
| 20260503215503 | 57 | 309 | 8.0 | 15.0 | 0.16 | 0.55 | 0.50 | 94 | 1011.5 |
| 20260503215003 | 57 | 296 | 9.0 | 13.0 | 0.12 | 0.50 | 0.46 | 94 | 1011.4 |
| 20260503214504 | 57 | 293 | 11.0 | 17.0 | 0.08 | 0.46 | 0.42 | 94 | 1011.4 |
| 20260503214024 | 57 | 308 | 11.0 | 20.0 | 0.07 | 0.46 | 0.41 | 93 | 1011.4 |
| 20260503213504 | 57 | 314 | 11.0 | 20.0 | 0.06 | 0.44 | 0.39 | 93 | 1011.2 |
| 20260503213004 | 57 | 310 | 8.0 | 19.0 | 0.06 | 0.44 | 0.39 | 93 | 1011.3 |
| 20260503212504 | 57 | 309 | 7.0 | 19.0 | 0.06 | 0.44 | 0.39 | 93 | 1011.2 |
| 20260503212004 | 56 | 301 | 7.0 | 14.0 | 0.06 | 0.44 | 0.39 | 93 | 1011.3 |
| 20260503211504 | 56 | 300 | 8.0 | 11.0 | 0.06 | 0.43 | 0.39 | 93 | 1011.3 |
| 20260503211003 | 56 | 313 | 8.0 | 13.0 | 0.07 | 0.41 | 0.36 | 93 | 1011.2 |
| 20260503210525 | 56 | 319 | 8.0 | 14.0 | 0.10 | 0.40 | 0.35 | 93 | 1011.2 |
| 20260503210004 | 56 | 312 | 9.0 | 14.0 | 0.10 | 0.39 | 0.35 | 93 | 1011.2 |
| 20260503205504 | 56 | 311 | 9.0 | 15.0 | 0.11 | 0.39 | 0.35 | 93 | 1011.2 |
| 20260503205003 | 56 | 312 | 9.0 | 15.0 | 0.17 | 0.39 | 0.34 | 93 | 1011.0 |
| 20260503204503 | 56 | 312 | 8.0 | 18.0 | 0.17 | 0.39 | 0.34 | 93 | 1011.0 |
| 20260503204003 | 56 | 312 | 8.0 | 18.0 | 0.18 | 0.39 | 0.34 | 93 | 1011.0 |
| 20260503203503 | 56 | 311 | 7.0 | 13.0 | 0.19 | 0.39 | 0.34 | 93 | 1011.0 |
| 20260503203003 | 56 | 303 | 7.0 | 11.0 | 0.20 | 0.39 | 0.34 | 93 | 1010.9 |
| 20260503202504 | 56 | 296 | 6.0 | 11.0 | 0.20 | 0.39 | 0.34 | 93 | 1010.8 |
| 20260503202004 | 56 | 297 | 6.0 | 10.0 | 0.26 | 0.39 | 0.34 | 93 | 1010.8 |
| 20260503201503 | 56 | 296 | 7.0 | 10.0 | 0.25 | 0.38 | 0.33 | 92 | 1010.7 |
| 20260503201003 | 56 | 296 | 8.0 | 13.0 | 0.21 | 0.34 | 0.29 | 92 | 1010.7 |
| 20260503200504 | 56 | 309 | 7.0 | 15.0 | 0.17 | 0.30 | 0.25 | 92 | 1010.5 |
| 20260503200003 | 56 | 318 | 7.0 | 15.0 | 0.17 | 0.29 | 0.24 | 92 | 1010.4 |
| 20260503195503 | 56 | 314 | 8.0 | 15.0 | 0.17 | 0.28 | 0.24 | 92 | 1010.3 |
| 20260503195003 | 56 | 307 | 9.0 | 15.0 | 0.09 | 0.21 | 0.17 | 92 | 1010.5 |
| 20260503194525 | 56 | 304 | 9.0 | 15.0 | 0.09 | 0.21 | 0.17 | 92 | 1010.6 |
| 20260503194003 | 56 | 304 | 8.0 | 18.0 | 0.09 | 0.20 | 0.16 | 92 | 1010.6 |
| 20260503193503 | 56 | 305 | 8.0 | 18.0 | 0.10 | 0.20 | 0.15 | 92 | 1010.5 |
| 20260503193004 | 56 | 309 | 9.0 | 13.0 | 0.09 | 0.19 | 0.14 | 92 | 1010.5 |
| 20260503192503 | 56 | 312 | 10.0 | 15.0 | 0.09 | 0.18 | 0.13 | 91 | 1010.4 |
| 20260503192003 | 56 | 315 | 10.0 | 15.0 | 0.03 | 0.13 | 0.08 | 91 | 1010.3 |